[Date Prev][Date Next][Thread Prev][Thread Next][Date Index][Thread Index]

[jamsat-news:1101] jas2info #142



========================   最新情報   ==============================

        Last updated :Mon.7-Jun.-1999 20:00 (JST) #142

====================================================================
   
     衛星情報 FOシリーズの軌道要素、テレメトリ、QSOの状況等を
   まとめてみました.

  1)  FO−29(ふじ3号)は、6月7日(月)14:24(JST)の
     パスではJARLのホームページにあるようにJDディジタルモードの
  運用から、14:34(JST)にJAアナログモードで運用されはじめました. 
       
 ■ 軌道要素1:「jamsat−keps:892」より
              SB KEPS @ AMSAT  $ORB99155.N
       2Line Orbital Elements 99155.AMSAT

  HR AMSAT ORBITAL ELEMENTS FOR AMATEUR SATELLITES IN NASA FORMAT
  FROM WA5QGD FORT WORTH,TX June 4, 1999
  SEND SUBSCRIBE/UNSUBSCRIBE TO majordomo@amsat.org ONLY
  BID: ORB99155.N
  
 DECODE 2-LINE ELSETS WITH THE FOLLOWING KEY:
 1 AAAAAU 00  0  0 BBBBB.BBBBBBBB  .CCCCCCCC  00000-0  00000-0 0  DDDZ
 2 AAAAA EEE.EEEE FFF.FFFF GGGGGGG HHH.HHHH III.IIII JJ.JJJJJJJJKKKKKZ
 KEY: A-CATALOGNUM B-EPOCHTIME C-DECAY D-ELSETNUM E-INCLINATION F-RAAN
 G-ECCENTRICITY H-ARGPERIGEE I-MNANOM J-MNMOTION K-ORBITNUM Z-CHECKSUM

 TO ALL RADIO AMATEURS BT

  FO-29
 1 24278U 96046B   99153.93530169  .00000052  00000-0  86678-4 0 02620
 2 24278 098.5611 106.9883 0352225 131.0350 232.1805 13.52668953137888

 ■ 軌道要素2:「jamsat−keps:893」より                         
         SB KEPS @ AMSAT  $ORB99155.O
         Orbital Elements  99155.OSCAR

 HR AMSAT ORBITAL ELEMENTS FOR OSCAR SATELLITES
 FROM WA5QGD FORT WORTH,TX June 4, 1999
 SEND SUBSCRIBE/UNSUBSCRIBE TO majordomo@amsat.org ONLY
 BID: ORB99155.O
 TO ALL RADIO AMATEURS BT

  Satellite: FO-29
 Catalog number: 24278
 Epoch time:      99153.93530169
 Element set:    0262
 Inclination:      098.5611 deg
 RA of node:       106.9883 deg
 Eccentricity:    0.0352225
 Arg of perigee:   131.0350 deg
 Mean anomaly:     232.1805 deg
 Mean motion:   13.52668953 rev/day
 Decay rate:        5.2e-07 rev/day^2
 Epoch rev:           13788
 Checksum:              318
 -----------------------------------------------------------
  2)FO−29(ふじ3号)の 6月4日(木)の14:24−14:42(JST)の
     パスではJDディジタルモードから14:34(JST)にJAアナログモードで
  運用されはじめ、テレメトリの一部分は次のようになっていました.
 
  AS13846PC  7Jun99
  JST 14:25 - 14:34 JDディジタル  PSK 1200B
  Freq.435.918 - 435.911 MHz

 8J1JCS>BEACON [06/07/99  14:25:19]:
 JAS-2    '97/06/07 05:23:38
 9C 03 03 08 00 2C 00 00 00 00
 00 00 67 A3 AA 7B 4A 95 92 9F
 AA 52 A8 02 B7 B8 BD BD BB BC
         
 8J1JCS>BEACON [06/07/99  14:25:20]:D5 02 00 09 00 00 B6 40 00 00
 26 CB 0A 58 24 98 9C 80 7A 80
 00 00 00 B1 81 B3 F7 00 00 00
                                      
 8J1JCS>BEACON [06/07/99  14:25:21]:
 User not connect.
                                                                                                             
 8J1JCS>BEACON [06/07/99  14:25:22]:
 Total    3 File(s)

  No.  Date  UTC    To    From   Size   Subject
 0004 06/01 19:55 ALL    N5ZNL       83 Hi !!!
 0003 05/31 20:
 8J1JCS>BEACON [06/07/99  14:25:24]:50 ALL    N5ZNL       22 Greeting From MS. USA
 0001 05/22 04:22 ALL    JN1GKZ      75 hello
                                    
 8J1JCS>BEACON [06/07/99  14:26:48]:9C 03 03 08 00 2C 00 00 00 00
 00 00 67 A3 D7 87 45 96 92 A0
 AA 52 A8 02 B7 B8 BD BD BB BB
                                      
 8J1JCS>BEACON [06/07/99  14:26:49]:95 02 00 09 00 00 B6 40 00 00
 47 CB ED 52 27 99 9E 80 7A 80
 00 00 00 B0 81 B3 F7 00 00 00
                                      
 8J1JCS>BEACON [06/07/99  14:27:00]:9C 03 03 08 00 2C 00 00 00 00
 00 00 67 A3 DC 7D 4A 96 93 A0
 AA 52 A8 02 B7 B8 BD BD BA BC
                                      
 8J1JCS>BEACON [06/07/99  14:27:01]:95 02 00 09 00 00 B6 40 00 00
 47 CB F6 4D 27 9B 9F 80 7A 80
 00 00 00 B0 82 B3 F7 00 00 00
                                      
 8J1JCS>BEACON [06/07/99  14:27:02]:9C 03 03 08 00 2C 00 00 00 00
 00 00 67 A3 DC 7D 4B 96 93 A0
 AA 51 A8 02 D0 B8 BD BD BA BB
                                      
 8J1JCS>BEACON [06/07/99  14:27:03]:95 02 00 09 00 00 B6 40 00 00
 47 CB F6 4D 27 9B 9F 80 7A 80
 00 00 00 B0 82 B3 F7 00 00 00
                                      
 8J1JCS>BEACON [06/07/99  14:27:19]:
 JAS-2    '97/06/07 05:25:38
 9C 03 03 08 00 2C 00 00 00 00
 00 00 67 A3 E6 83 48 95 92 A0
 AA 51 A8 02 CF B8 BD BD BA BB
         
 8J1JCS>BEACON [06/07/99  14:27:20]:95 02 00 09 00 00 B6 40 00 00
 60 CB F6 4D 22 9B 9F 81 7A 80
 00 00 00 B0 81 B3 F7 00 00 00
                                      
 8J1JCS>BEACON [06/07/99  14:27:21]:
 User not connect.
                                                                       
 8J1JCS>BEACON [06/07/99  14:27:22]:
 Total    3 File(s)

  No.  Date  UTC    To    From   Size   Subject
 0004 06/01 19:55 ALL    N5ZNL       83 Hi !!!
 0003 05/31 20:
 8J1JCS>BEACON [06/07/99  14:27:24]:50 ALL    N5ZNL       22 Greeting From MS. USA
 0001 05/22 04:22 ALL    JN1GKZ      75 hello
                                    
 8J1JCS>BEACON [06/07/99  14:27:36]:9C 03 63 08 00 2C 00 00 00 00
 00 00 67 A3 F0 87 60 93 90 B0
 AA 52 A8 02 CB B8 BD BD BB BB
                                      
 8J1JCS>BEACON [06/07/99  14:27:37]:95 02 00 09 00 00 B6 40 00 00
 60 CB F6 4D 22 9B 9F 81 7A 80
 00 00 00 B0 81 B3 F7 00 00 00
                                      
 8J1JCS>BEACON [06/07/99  14:27:39]:DC 03 63 08 00 2D 00 00 00 00
 00 00 67 A3 F0 87 60 93 90 B0
 AA 52 A7 8B CA B8 BD BD BA BB
                                      
 8J1JCS>BEACON [06/07/99  14:27:40]:95 02 00 09 00 00 B6 40 00 00
 60 CB F6 4D 22 9B 9F 81 7A 80
 00 00 00 B0 81 B3 F7 00 00 00
                                      
 8J1JCS>BEACON [06/07/99  14:29:19]:
 JAS-2    '97/06/07 05:27:38
 DC 03 03 08 00 2D 00 00 00 00
 00 00 67 A4 22 7B 59 91 8F 9B
 AA 52 A7 78 B3 B8 BD BC BA BB
         
 8J1JCS>BEACON [06/07/99  14:29:20]:95 02 00 09 00 00 B6 40 00 00
 75 CB E6 3D 63 9D A2 81 7A 80
 00 00 00 B0 81 B3 F7 00 00 00
                                      
 8J1JCS>BEACON [06/07/99  14:29:21]:
 User not connect.
                                                                     
 8J1JCS>BEACON [06/07/99  14:29:23]:
 Total    3 File(s)

  No.  Date  UTC    To    From   Size   Subject
 0004 06/01 19:55 ALL    N5ZNL       83 Hi !!!
 0003 05/31 20:
 8J1JCS>BEACON [06/07/99  14:29:24]:50 ALL    N5ZNL       22 Greeting From MS. USA
 0001 05/22 04:22 ALL    JN1GKZ      75 hello
                                    
 8J1JCS>JJ1ZUT [06/07/99  14:30:10]:
 FO-29/JAS-2 Mailbox ver 1.01
 You can use Mailbox for 10 minutes.
 commands [B/F/H/K/M/Q/R/U/W/Y]
 Use H command for Help
 JAS2>   
 8J1JCS>JJ1ZUT [06/07/99  14:30:13]:
 FO-29/JAS-2 Mailbox ver 1.01
 You can use Mailbox for 10 minutes.
 commands [B/F/H/K/M/Q/R/U/W/Y]
 Use H command for Help
 JAS2>   
 8J1JCS>JJ1ZUT [06/07/99  14:30:57]:
 FO-29/JAS-2 Mailbox ver 1.01
 You can use Mailbox for 10 minutes.
 commands [B/F/H/K/M/Q/R/U/W/Y]
 Use H command for Help
 JAS2>   
 8J1JCS>BEACON [06/07/99  14:31:19]:
 JAS-2    '97/06/07 05:29:38
 DC 03 03 08 01 2D 00 01 00 00
 00 00 67 A4 5E 85 56 92 8F 9D
 AA 51 A7 73 CA B8 BD BC BA BB
         
 8J1JCS>BEACON [06/07/99  14:31:21]:95 02 00 09 00 00 B6 40 00 00
 68 CB DC 30 64 9F A4 81 7A 80
 00 00 00 B0 82 B3 F7 00 00 00
                                      
 8J1JCS>BEACON [06/07/99  14:31:22]:
 User not connect.
                                                                           
 8J1JCS>BEACON [06/07/99  14:31:23]:
 Total    3 File(s)

  No.  Date  UTC    To    From   Size   Subject
 0004 06/01 19:55 ALL    N5ZNL       83 Hi !!!
 0003 05/31 20:
 8J1JCS>BEACON [06/07/99  14:31:24]:50 ALL    N5ZNL       22 Greeting From MS. USA
 0001 05/22 04:22 ALL    JN1GKZ      75 hello
                                    
 8J1JCS>BEACON [06/07/99  14:32:37]:DC 03 03 08 01 2D 00 01 00 00
 00 00 67 A4 86 85 56 94 91 9E
 AA 52 A7 99 CD B8 BC BC BA BB
                                      
 8J1JCS>BEACON [06/07/99  14:32:38]:D5 02 00 09 00 00 B6 40 00 00
 57 CB D9 2D 6F A0 A4 81 7A 80
 00 00 00 B0 81 B3 F7 00 00 00
                                      
 8J1JCS>BEACON [06/07/99  14:32:39]:DC 03 03 08 01 2D 00 01 00 00
 00 00 67 A4 86 85 54 94 91 9E
 AA 52 A6 8F B6 B8 BC BC BA BB
                                      
 8J1JCS>BEACON [06/07/99  14:32:40]:D5 02 00 09 00 00 B6 40 00 00
 57 CB D9 2D 6F A0 A4 81 7A 80
 00 00 00 B0 81 B3 F7 00 00 00
                                      
 8J1JCS>BEACON [06/07/99  14:33:19]:
 JAS-2    '97/06/07 05:31:38
 DC 03 03 08 01 2E 00 01 00 00
 00 00 67 A4 9A 92 4F 96 92 A0
 AA 52 A7 8B D0 B9 BC BB BA BB
         
 8J1JCS>BEACON [06/07/99  14:33:20]:15 02 00 09 00 00 B6 40 00 00
 43 CB D9 32 6A A0 A4 81 7A 80
 00 00 00 AF 82 B3 F7 00 00 00
                                      
 8J1JCS>BEACON [06/07/99  14:33:21]:
 User not connect.
                                                                      
 8J1JCS>BEACON [06/07/99  14:33:23]:
 Total    3 File(s)

  No.  Date  UTC    To    From   Size   Subject
 0004 06/01 19:55 ALL    N5ZNL       83 Hi !!!
 0003 05/31 20:
 8J1JCS>BEACON [06/07/99  14:33:24]:50 ALL    N5ZNL       22 Greeting From MS. USA
 0001 05/22 04:22 ALL    JN1GKZ      75 hello
                                    

   JST  13:34 - 14:42 JA アナログテレメトリ
   Freq.  435.796 -435.786MHz

 HI HI AE C7 88 51 1F 2F FF 0D 00 16 61 4B 85 60 63 90 B0 87 BC BB BA BB B9 
 HI HI AE C7 88 51 04 2F 0A 0D 00 16 9A 52 89 60 8E 90 B0 70 BC BA BA BA B9 
 HI HI AE C7 88 51 09 2F FF 0D 00 16 98 46 90 60 94 91 B0 D2 BC BA BA BA B9 
 HI HI AE 07 88 51 0F 2F FF 0D 00 16 50 36 8D 5F 95 92 A1 6D BC BA BA BA B9 
 HI HI AE C7 88 51 0E 2F FF 0D 00 16 33 4C 89 60 94 91 B0 94 BC BA BA BA B9 
 HI HI AE 07 88 51 19 2F 0A 0D 00 16 69 6B 6B 60 94 91 A1 7O BC BA BA BA B9 
 HI HI AE C7 88 51 1E 2F FF 0E 00 16 B2 64 84 60 94 91 B0 7C BB BA B9 BA B9 
 HI HI AE C7 88 51 03 2F FF 0D 00 16 6A 53 84 60 93 91 B  

 3)テレメトリ換算値例
  
  。複張妊ジタルモード
  テレメトリの最後のブロックの換算値例
  AS13846PC  7Jun99
  JST 14:25 - 14:34 JDディジタル  PSK 1200B
  Freq.435.918 - 435.911 MHz
 
